Location: Berry Creek
(51.8849°N, 111.7341°W)
Time: 14:39:01
(UTC-06:00)

Daily predictions for brighter satellites

Satellite Brightness Start Highest point End
(mag) Time Altitude Azimuth Time Altitude Azimuth Time Altitude Azimuth
CENTAUR R/B 3.8 19:29:02 10° SSE 19:33:17 19° ESE 19:37:51 10° ENE
Cosmos 1346 3.4 19:32:26 10° N 19:35:19 43° ENE 19:38:11 10° SSE
ERBS 2.6 19:32:01 10° WNW 19:35:29 57° NNE 19:38:56 10° ESE
NOAA 12 4.1 19:30:34 10° SSE 19:35:46 64° ENE 19:41:02 10° N
Cosmos 1607 4.5 19:30:25 10° WSW 19:36:31 62° NW 19:42:39 10° NE
Cosmos 1943 Rocket 3.1 19:33:46 10° NNW 19:38:48 32° NE 19:43:46 10° ESE
COSMOS 2455 4.3 19:33:55 10° WSW 19:39:30 37° NW 19:45:06 10° NNE
Cosmos 1420 Rocket 4.0 19:34:35 10° NNW 19:39:56 80° ENE 19:45:16 10° SSE
Cosmos 1408 Rocket 3.5 19:35:58 10° N 19:40:21 87° ENE 19:44:41 10° S
Cosmos 1500 Rocket 4.2 19:37:47 10° N 19:41:54 36° ENE 19:46:02 10° SE
SKYMED 2 3.5 19:38:54 10° NNE 19:43:16 73° ESE 19:47:36 10° S
H-2A R/B 4.1 19:42:25 10° ESE 19:45:22 21° ENE 19:48:19 10° NNE
Cosmos 1805 3.5 19:46:18 10° S 19:50:07 49° E 19:53:56 10° NNE
Helios 1A 3.3 19:46:11 10° SE 19:50:13 46° ENE 19:54:18 10° N
FREGAT/IRIS 2.6 19:47:41 10° SSE 19:50:45 67° ENE 19:53:51 10° N
Cosmos 2369 Rocket 2.3 19:45:10 10° NNW 19:50:49 65° NE 19:56:28 10° SE
NOSS 3-2 (C) 3.6 19:44:48 10° SSW 19:50:57 69° SE 19:57:45 10° NE
Cosmos 1464 Rocket 4.0 19:52:10 10° S 19:58:23 84° E 20:04:34 10° NNE
Cosmos 1943 4.1 19:53:55 10° SSE 19:58:26 26° ESE 20:02:59 10° NE
Cosmos 2034 Rocket 4.0 19:53:07 10° S 19:59:20 67° E 20:05:40 10° NNE
Spot 2 Rocket 3.5 19:55:01 10° SSE 20:00:01 69° ENE 20:05:04 10° NNW
HJ-1C 3.4 19:58:05 10° SSE 20:01:25 63° ENE 20:04:47 10° N
Cosmos 1733 4.2 20:00:52 10° SE 20:04:04 25° E 20:07:16 10° NNE
Cosmos 1674 2.8 20:00:25 10° N 20:04:17 57° ENE 20:08:06 10° SSE
Cosmos 1048 Rocket 4.4 19:59:32 10° S 20:04:27 41° ESE 20:09:20 10° NE
Cosmos 2263 4.3 19:59:19 10° NNW 20:05:06 62° NE 20:10:48 10° SE
Cosmos 1603 3.8 20:00:57 10° S 20:06:34 59° ESE 20:12:14 10° NE
Helios 1B rocket 2.9 20:05:39 10° NNE 20:09:31 38° E 20:13:22 10° SSE
Cosmos 1953 2.2 20:06:18 10° S 20:10:17 82° E 20:14:18 10° NNE
Envisat 4.4 20:08:51 15° E 20:11:20 20° NE 20:15:01 10° N
Cosmos 1743 Rocket 3.6 20:07:33 10° N 20:12:02 89° E 20:16:27 10° S
Cosmos 1269 Rocket 4.1 20:07:26 10° S 20:12:34 54° ESE 20:17:42 10° NNE
CZ-4B DEB 3.2 20:12:52 11° SE 20:15:49 43° ENE 20:18:57 10° N
Spot 1 4.3 20:12:08 10° SSE 20:16:41 78° WSW 20:21:00 10° NNW
Cosmos 1470 3.1 20:13:04 10° SSE 20:16:42 40° E 20:20:21 10° NNE
USA 215 4.2 20:13:01 13° E 20:17:23 24° SE 20:22:30 10° S
CZ-4C R/B 3.4 20:15:33 10° W 20:21:00 44° NNW 20:27:16 10° NE
Resurs 1-3 3.5 20:18:14 10° SSE 20:22:38 83° ENE 20:27:04 10° NNW
Lacrosse 4 Rocket 4.2 20:22:21 10° N 20:23:03 10° N 20:23:45 10° NNE
Cosmos 1544 3.0 20:19:35 10° S 20:23:20 80° E 20:27:07 10° NNE
Sich 1 4.3 20:21:15 10° NNE 20:24:40 22° ENE 20:25:36 20° E
ATLAS 5 CENTAUR R/B 2.0 20:21:38 10° SW 20:26:35 82° NW 20:32:02 10° NE
USA 186 2.3 20:27:30 26° NE 20:27:30 26° NE 20:29:20 10° N
Cosmos 2333 Rocket 4.2 20:22:34 10° W 20:27:28 28° NW 20:32:24 10° NNE
Cosmos 2058 3.4 20:25:59 10° N 20:29:52 39° ENE 20:32:01 22° SE
COSMO-SKYMED 1 4.0 20:27:08 10° N 20:31:15 41° WNW 20:35:20 10° SW
Cosmos 1626 4.2 20:30:04 10° NNE 20:31:34 14° NE 20:31:34 14° NE
Resurs 01 Rocket 2.1 20:29:01 10° S 20:33:27 64° WSW 20:37:53 10° NNW
ATLAS CENTAUR R/B 4.3 20:27:43 10° SW 20:34:07 77° SE 20:56:14 10° ENE
ATLAS 3B R/B 4.0 20:28:03 10° W 20:34:56 38° NNW 20:41:31 10° NE
ERS-1 Rocket 3.7 20:36:04 24° ESE 20:38:10 33° ENE 20:42:40 10° N
Cosmos 1656 Rocket 4.2 20:33:57 10° NNW 20:39:02 39° NE 20:41:32 25° E
Cosmos 2237 Rocket 4.3 20:35:21 10° W 20:40:05 26° NW 20:44:50 10° NNE
SL-8 R/B 4.3 20:35:58 10° SW 20:40:23 38° SSE 20:42:08 28° ESE
Meteor 1-29 2.9 20:38:29 10° NNE 20:42:01 68° ESE 20:45:29 10° S
ALOS 2.3 20:38:45 10° SSE 20:43:26 87° WSW 20:48:09 10° NNW
Meteor 1-16 Rocket 4.4 20:38:47 10° SSE 20:43:44 42° E 20:48:46 10° NNE
BREEZE-M DEB (TANK) 4.2 20:30:01 10° W 20:44:00 53° SSW 20:46:53 24° SE
Cosmos 2151 2.8 20:39:54 10° N 20:44:09 77° ENE 20:47:52 13° SSE
ASTEX 1 3.3 20:42:13 10° N 20:47:10 74° E 20:52:02 10° S
GP-B 3.1 20:44:27 10° N 20:48:52 60° E 20:52:51 12° SSE
Cosmos 1110 Rocket 4.0 20:44:49 10° NNW 20:50:10 84° WSW 20:54:36 15° SSE
Cosmos-2242 4.2 20:49:27 10° SSW 20:53:40 45° WNW 20:57:56 10° N
ISS -2.6 20:50:44 10° SW 20:53:27 37° S 20:53:27 37° S
Cosmos 1805 Rocket 3.7 20:49:41 10° N 20:54:04 54° ENE 20:55:39 35° SE
Cosmos 1437 Rocket 3.5 20:54:53 34° ENE 20:54:53 34° ENE 20:57:46 10° NNE
Meteor 1-11 4.2 20:49:22 10° N 20:55:13 79° ENE 21:00:18 14° SSE
H-2A R/B 3.4 20:57:27 24° ENE 20:57:27 24° ENE 21:01:02 10° N
Abrixas 3.8 20:54:41 10° SW 20:56:48 29° SSW 20:56:48 29° SSW
CZ-4B DEB 4.5 20:55:54 30° SSE 20:57:37 90° SE 21:01:15 10° NNW
Cosmos 2221 2.8 20:58:44 41° ESE 20:59:19 44° E 21:03:26 10° NNE
SPOT 5 3.9 21:00:49 24° NE 21:00:49 24° NE 21:04:04 10° N
NOSS 3-2 (A) 4.3 20:54:41 10° WSW 21:00:53 55° NNW 21:07:48 10° NE
Cosmos 2279 Rocket 4.1 20:55:22 10° SSE 21:01:15 48° E 21:07:11 10° NNE
FENGYUN 3A 4.0 20:57:18 10° S 21:02:40 66° WSW 21:08:05 10° NNW
SL-16 R/B 3.9 20:58:00 10° WSW 21:03:07 33° NW 21:08:15 10° NNE
Cosmos 1633 Rocket 3.4 21:00:50 10° N 21:05:02 43° ENE 21:05:11 43° E
Cosmos 1328 4.4 21:05:57 10° NNW 21:09:51 56° W 21:13:01 15° S
CZ-2D R/B 4.0 21:08:06 15° S 21:11:08 54° W 21:14:58 10° NNW
SL-14 R/B 3.3 21:07:09 10° NNW 21:11:14 85° W 21:12:44 38° S
ERBS 3.6 21:08:58 10° WNW 21:12:10 34° SW 21:12:44 32° SSW
Cosmos 2266 Rocket 4.4 21:06:34 10° N 21:12:35 42° ENE 21:14:00 37° ESE
Cosmos 482 Debris 4.2 21:11:34 10° W 21:13:30 50° WSW 21:13:30 50° WSW
Cosmos 2026 Rocket 4.0 21:08:21 10° NNW 21:14:29 82° W 21:20:31 11° S
Cosmos 1428 Rocket 4.4 21:09:28 10° N 21:15:47 73° ENE 21:19:21 28° SSE
Cosmos 494 Rocket 4.1 21:12:23 10° S 21:17:21 49° ESE 21:22:20 10° NE
Cosmos 2251 Rocket 3.4 21:12:15 10° S 21:17:23 60° ESE 21:22:35 10° NNE
CZ-4 DEB 4.4 21:19:24 25° N 21:19:24 25° N 21:20:56 10° N
H-2A R/B 3.8 21:16:35 16° SSW 21:19:27 44° W 21:23:10 10° NNW
Cosmos 1655 Rocket 4.0 21:13:18 10° NNW 21:19:34 83° W 21:24:52 15° S
Cosmos 1980 Rocket 4.2 21:16:57 10° NNW 21:20:07 15° NNE 21:22:13 12° NE
CENTAUR R/B 2.5 21:16:29 10° SW 21:22:45 78° SE 21:29:54 10° NE
Cosmos 1943 Rocket 2.5 21:17:24 10° NW 21:22:58 64° WSW 21:25:55 28° S
Cosmos 1634 Rocket 4.1 21:21:17 10° SSW 21:27:30 74° WNW 21:33:44 10° N
Meteor 2-20 4.3 21:22:44 10° N 21:28:58 86° E 21:31:59 33° SSE
MetOp-B 4.5 21:29:35 44° ENE 21:29:46 44° ENE 21:34:51 10° N
Meteor 2-20 Rocket 4.3 21:23:48 10° N 21:30:00 72° ENE 21:32:06 43° SSE
Aureole 3 4.0 21:24:06 10° N 21:30:25 81° ENE 21:31:49 50° SSE
Cosmos 1939 Rocket 2.9 21:31:12 65° NNE 21:31:12 65° NNE 21:34:40 10° N
YAOGAN 11 3.9 21:32:37 80° SSE 21:32:51 88° ENE 21:37:11 10° NNW
Cosmos 1666 Rocket 3.5 21:29:04 10° N 21:33:33 87° WSW 21:34:00 72° S
Cosmos 2369 Rocket 4.1 21:29:47 10° NW 21:34:26 27° WSW 21:39:07 10° SSW
Cosmos 1302 Rocket 4.2 21:29:39 10° NNW 21:34:51 69° WSW 21:36:30 43° S
SJ-11-01 4.4 21:39:10 53° SSW 21:40:13 72° WSW 21:44:56 10° NNW
Cosmos 1943 3.5 21:36:27 10° SW 21:42:03 67° NW 21:47:41 10° NNE
Cosmos 1992 Rocket 4.2 21:39:05 10° NNW 21:44:07 55° NE 21:44:07 55° NE
Terra 3.8 21:46:04 16° NNE 21:46:04 16° NNE 21:47:54 10° NNE
Cosmos 1933 Rocket 4.5 21:42:19 10° N 21:45:25 39° NNE 21:45:25 39° NNE
Envisat 3.0 21:49:04 64° S 21:49:49 79° WSW 21:54:57 10° NNW
SL-16 R/B 4.4 21:52:21 10° N 21:55:02 13° NNE 21:57:03 11° NE
Cosmos 1703 4.2 21:51:55 10° NNW 21:55:04 47° NW 21:55:04 47° NW
Cosmos 1470 Rocket 4.5 21:51:30 10° N 21:54:22 40° N 21:54:22 40° N
Gbstr 26 Del rocket 3.9 21:54:24 10° WSW 21:58:06 52° SW 21:58:06 52° SW
USA 215 3.1 22:00:26 62° ESE 22:01:14 68° SE 22:07:44 10° SW
Sich 1 3.7 21:58:26 10° NNW 22:02:37 50° W 22:02:37 50° W
BREEZE-M DEB (TANK) 3.7 21:54:52 10° W 22:02:54 69° SSW 22:02:54 69° SSW
Lacrosse 4 Rocket 3.7 22:00:33 10° NNW 22:03:09 17° NNE 22:03:09 17° NNE
Cosmos 1626 4.0 22:04:18 10° NNW 22:06:16 29° NNW 22:06:16 29° NNW
CZ-4C R/B 4.0 22:05:44 10° WNW 22:11:06 30° N 22:14:59 18° NE
ATLAS 5 CENTAUR R/B 3.6 22:07:27 10° W 22:12:02 31° NNW 22:15:37 16° NE
MetOp-A 4.2 22:16:23 75° NW 22:16:23 75° NW 22:21:21 10° NNW
ERS-1 Rocket 3.9 22:16:05 40° WSW 22:16:51 43° W 22:21:40 10° NNW
Cosmos 2322 Rocket 4.3 22:13:32 10° NNW 22:16:54 16° NNE 22:17:53 15° NE
Nadezhda 2 Rocket 4.4 22:11:33 10° N 22:17:20 73° NE 22:17:20 73° NE
H-2A R/B 3.3 22:20:18 31° NNE 22:20:18 31° NNE 22:23:24 10° N
Cosmos 2278 4.1 22:14:29 10° NNW 22:19:22 54° NNE 22:19:22 54° NNE
Cosmos 1656 Rocket 4.3 22:17:34 10° NW 22:22:45 46° WSW 22:22:55 46° WSW
Cosmos 1697 Rocket 3.9 22:20:48 10° NNW 22:24:59 32° NNE 22:24:59 32° NNE
ATLAS 3B R/B 4.0 22:21:02 10° NW 22:27:32 33° N 22:30:12 25° NE
ARGOS 3.7 22:32:56 56° N 22:32:56 56° N 22:37:10 10° NNW
H-2A R/B 3.6 22:34:35 37° NW 22:34:35 37° NW 22:37:34 10° NNW
SPOT 5 4.3 22:40:04 31° NW 22:40:04 31° NW 22:42:39 10° NNW
SPOT 1/Viking Rocket 4.5 22:43:41 45° NNW 22:43:41 45° NNW 22:47:15 10° NNW
Cosmos 2369 4.4 22:42:30 10° NNW 22:46:47 51° NNW 22:46:47 51° NNW
Cosmos 2285 Rocket 4.2 22:42:40 10° NNW 22:48:16 67° NW 22:48:16 67° NW
Cosmos 2360 Rocket 4.5 23:01:04 10° NNW 23:04:16 15° NNE 23:04:50 15° NNE
Cosmos 1980 Rocket 3.6 23:00:28 10° NNW 23:03:58 31° N 23:03:58 31° N
CENTAUR R/B 3.7 23:07:49 10° W 23:14:04 43° NNW 23:21:07 10° NE
Terra 4.0 23:24:58 22° NNW 23:24:58 22° NNW 23:26:38 10° NNW
SL-16 R/B 4.1 23:35:58 10° NNW 23:38:54 25° N 23:38:54 25° N
Lacrosse 4 Rocket 4.5 23:38:48 10° NNW 23:39:29 14° NNW 23:39:29 14° NNW
